Lagos, Nigeria

10:02 PM WAT on October 18, 2017 (GMT +0100)
Lagos

Weather History for DNMM - February, 2013

Change the Weather History Date:

Saturday, February 2, 2013

  Actual Average Record
Temperature  
Mean Temperature 78 °F -  
Max Temperature 88 °F 92 °F - ()
Min Temperature 68 °F 75 °F - ()
Cooling Degree Days 13    
Growing Degree Days 28 (Base 50)    
Moisture  
Dew Point 60 °F    
Average Humidity 56    
Maximum Humidity 82    
Minimum Humidity 22    
Precipitation  
Precipitation 0.00 in 0.06 in - ()
Sea Level Pressure  
Sea Level Pressure 29.90 in    
Wind  
Wind Speed 4 mph ()    
Max Wind Speed 12 mph    
Max Gust Speed -    
Visibility 0.8 miles    
Events      
T = Trace of Precipitation, MM = Missing Value Source: Averaged Metar Reports

Daily Weather History Graph

Daily Weather History Graph

Search for Another Location

Airport or City:

Trip Planner

Search our weather history database for the weather conditions in past years. The results will help you decide how hot, cold, wet, or windy it might be!

Date:

Astronomy

Feb. 02, 2013 Rise Set
Actual Time 7:04 AM WAT 6:56 PM WAT
Civil Twilight 6:43 AM WAT 7:17 PM WAT
Nautical Twilight 6:18 AM WAT 7:42 PM WAT
Astronomical Twilight 5:52 AM WAT 8:07 PM WAT
Moon No Moon Rise 11:34 AM WAT (2/2)
Length of Visible Light 12h 34m
Length of Day
11h 51m
Waning Gibbous, 62% of the Moon is Illuminated
Feb 2
Waning Gibbous
Feb 3
Last Quarter
Feb 10
New
Feb 17
First Quarter
Feb 25
Full

Hourly Weather History & Observations

Time (WAT) Temp. Heat Index Dew Point Humidity Pressure Visibility Wind Dir Wind Speed Gust Speed Precip Events Conditions
12:00 AM 73.4 °F - 55.4 °F 53% 29.92 in 0.7 mi NNW 2.3 mph - N/A   Haze
12:30 AM 71.6 °F - 57.2 °F 60% 29.92 in 0.7 mi Variable 2.3 mph - N/A   Haze
1:00 AM 76 °F - 69 °F 73% 29.92 in 1 mi Calm Calm - -   Haze
1:00 AM 71.6 °F - 57.2 °F 60% 29.92 in 0.7 mi Variable 2.3 mph - N/A   Haze
1:30 AM 71.6 °F - 57.2 °F 60% 29.92 in 0.7 mi North 2.3 mph - N/A   Haze
2:00 AM 71.6 °F - 57.2 °F 60% 29.89 in 0.7 mi North 2.3 mph - N/A   Haze
2:30 AM 71.6 °F - 57.2 °F 60% 29.89 in 0.7 mi Variable 2.3 mph - N/A   Haze
3:00 AM 71.6 °F - 57.2 °F 60% 29.89 in 0.7 mi North 2.3 mph - N/A   Haze
3:30 AM 71.6 °F - 59.0 °F 64% 29.89 in 0.7 mi North 6.9 mph - N/A   Haze
4:00 AM 74 °F - 70 °F 82% 29.91 in 1 mi North 5.8 mph - -   Haze
4:00 AM 71.6 °F - 59.0 °F 64% 29.89 in 0.7 mi North 5.8 mph - N/A   Haze
4:30 AM 69.8 °F - 59.0 °F 68% 29.89 in 0.7 mi North 3.5 mph - N/A   Haze
5:00 AM 69.8 °F - 57.2 °F 64% 29.89 in 0.7 mi NNE 2.3 mph - N/A   Haze
5:30 AM 69.8 °F - 57.2 °F 64% 29.89 in 0.7 mi North 4.6 mph - N/A   Haze
6:00 AM 69.8 °F - 59.0 °F 68% 29.89 in 0.7 mi North 4.6 mph - N/A   Haze
6:30 AM 68.0 °F - 57.2 °F 68% 29.92 in 0.7 mi North 4.6 mph - N/A   Haze
7:00 AM 69.8 °F - 59.0 °F 68% 29.92 in 0.6 mi North 4.6 mph - N/A   Haze
8:00 AM 68.0 °F - 57.2 °F 68% 29.95 in 0.7 mi North 4.6 mph - N/A   Haze
9:00 AM 78.8 °F - 60.8 °F 54% 29.95 in 0.7 mi North 5.8 mph - N/A   Haze
10:00 AM 75 °F - 53 °F 35% 29.98 in 1 mi North 9.2 mph - -   Haze
12:00 PM 80.6 °F 82.7 °F 66.2 °F 61% 29.89 in 0.7 mi NE 6.9 mph - N/A   Haze
1:00 PM 86 °F - 53 °F 22% 29.93 in 1 mi East 6.9 mph - -   Haze
1:00 PM 84.2 °F 87.3 °F 68.0 °F 58% 29.92 in 0.7 mi East 6.9 mph - N/A   Haze
1:30 PM 86.0 °F 89.4 °F 68.0 °F 55% 29.89 in 0.9 mi East 6.9 mph - N/A   Haze
2:00 PM 86.0 °F 89.4 °F 68.0 °F 55% 29.89 in 0.9 mi ESE 6.9 mph - N/A   Haze
2:30 PM 86.0 °F 89.4 °F 68.0 °F 55% 29.86 in 0.9 mi ESE 9.2 mph - N/A   Haze
3:00 PM 86.0 °F 88.2 °F 66.2 °F 51% 29.86 in 0.9 mi ESE 8.1 mph - N/A   Haze
3:30 PM 87.8 °F 85.7 °F 53.6 °F 31% 29.83 in 0.9 mi SSE 8.1 mph - N/A   Haze
4:00 PM 88 °F - 66 °F 39% 29.87 in 1 mi ESE 11.5 mph - -   Haze
4:00 PM 87.8 °F 88.5 °F 62.6 °F 43% 29.80 in 0.9 mi ESE 11.5 mph - N/A   Haze
7:00 PM 81 °F - 63 °F 44% 29.87 in 1 mi SE 4.6 mph - -   Haze
7:30 PM 82.4 °F - 48.2 °F 30% 29.83 in 0.7 mi Variable 2.3 mph - N/A   Haze
8:00 PM 73.4 °F - 48.2 °F 41% 29.86 in 0.7 mi SSE 3.5 mph - N/A   Haze
10:00 PM 76 °F - 64 °F 58% 29.92 in 1 mi Calm Calm - -   Haze
10:30 PM 69.8 °F - 50.0 °F 49% 29.89 in 0.7 mi Calm Calm - N/A   Haze